Date_Time,Julian_Date,Latitude,Longitude,Instrument_Depth,Water_Temperature
(yyyy-mm-dd hh:mn:ss UTC),(JD),(+ deg. North),(+ deg. East),(m),(deg. C)
1981-06-27 22:00:00 UTC,2444783.416667,28.7317,-95.2428,0060,29.8000
1981-06-27 22:30:00 UTC,2444783.437500,28.7317,-95.2428,0060,29.8000
1981-06-27 23:00:00 UTC,2444783.458333,28.7317,-95.2428,0060,29.8000
1981-06-27 23:30:00 UTC,2444783.479167,28.7317,-95.2428,0060,29.8000
1981-06-28 00:00:00 UTC,2444783.500000,28.7317,-95.2428,0060,29.8000
1981-06-28 00:30:00 UTC,2444783.520833,28.7317,-95.2428,0060,29.8000
1981-06-28 01:00:00 UTC,2444783.541667,28.7317,-95.2428,0060,29.8000
1981-06-28 01:30:00 UTC,2444783.562500,28.7317,-95.2428,0060,29.8000
1981-06-28 02:00:00 UTC,2444783.583333,28.7317,-95.2428,0060,29.7000
1981-06-28 02:30:00 UTC,2444783.604167,28.7317,-95.2428,0060,29.7000
1981-06-28 03:00:00 UTC,2444783.625000,28.7317,-95.2428,0060,29.6000
1981-06-28 03:30:00 UTC,2444783.645833,28.7317,-95.2428,0060,29.6000
1981-06-28 04:00:00 UTC,2444783.666667,28.7317,-95.2428,0060,29.6000
1981-06-28 04:30:00 UTC,2444783.687500,28.7317,-95.2428,0060,29.6000
1981-06-28 05:00:00 UTC,2444783.708333,28.7317,-95.2428,0060,29.6000
1981-06-28 05:30:00 UTC,2444783.729167,28.7317,-95.2428,0060,29.5000
1981-06-28 06:00:00 UTC,2444783.750000,28.7317,-95.2428,0060,29.5000
1981-06-28 06:30:00 UTC,2444783.770833,28.7317,-95.2428,0060,29.5000
1981-06-28 07:00:00 UTC,2444783.791667,28.7317,-95.2428,0060,29.5000
1981-06-28 07:30:00 UTC,2444783.812500,28.7317,-95.2428,0060,29.5000
1981-06-28 08:00:00 UTC,2444783.833333,28.7317,-95.2428,0060,29.5000
1981-06-28 08:30:00 UTC,2444783.854167,28.7317,-95.2428,0060,29.5000
1981-06-28 09:00:00 UTC,2444783.875000,28.7317,-95.2428,0060,29.5000
1981-06-28 09:30:00 UTC,2444783.895833,28.7317,-95.2428,0060,29.5000
1981-06-28 10:00:00 UTC,2444783.916667,28.7317,-95.2428,0060,29.5000
1981-06-28 10:30:00 UTC,2444783.937500,28.7317,-95.2428,0060,29.6000
1981-06-28 11:00:00 UTC,2444783.958333,28.7317,-95.2428,0060,29.6000
1981-06-28 11:30:00 UTC,2444783.979167,28.7317,-95.2428,0060,29.6000
1981-06-28 12:00:00 UTC,2444784.000000,28.7317,-95.2428,0060,29.6000
1981-06-28 12:30:00 UTC,2444784.020833,28.7317,-95.2428,0060,29.6000
1981-06-28 13:00:00 UTC,2444784.041667,28.7317,-95.2428,0060,29.6000
1981-06-28 13:30:00 UTC,2444784.062500,28.7317,-95.2428,0060,29.6000
1981-06-28 14:00:00 UTC,2444784.083333,28.7317,-95.2428,0060,29.5000
1981-06-28 14:30:00 UTC,2444784.104167,28.7317,-95.2428,0060,29.5000
1981-06-28 15:00:00 UTC,2444784.125000,28.7317,-95.2428,0060,29.4000
1981-06-28 15:30:00 UTC,2444784.145833,28.7317,-95.2428,0060,29.4000
1981-06-28 16:00:00 UTC,2444784.166667,28.7317,-95.2428,0060,29.4000
1981-06-28 16:30:00 UTC,2444784.187500,28.7317,-95.2428,0060,29.4000
1981-06-28 17:00:00 UTC,2444784.208333,28.7317,-95.2428,0060,29.4000
1981-06-28 17:30:00 UTC,2444784.229167,28.7317,-95.2428,0060,29.4000
1981-06-28 18:00:00 UTC,2444784.250000,28.7317,-95.2428,0060,29.4000
1981-06-28 18:30:00 UTC,2444784.270833,28.7317,-95.2428,0060,29.4000
1981-06-28 19:00:00 UTC,2444784.291667,28.7317,-95.2428,0060,29.4000
1981-06-28 19:30:00 UTC,2444784.312500,28.7317,-95.2428,0060,29.4000
1981-06-28 20:00:00 UTC,2444784.333333,28.7317,-95.2428,0060,29.4000
1981-06-28 20:30:00 UTC,2444784.354167,28.7317,-95.2428,0060,29.5000
1981-06-28 21:00:00 UTC,2444784.375000,28.7317,-95.2428,0060,29.6000
1981-06-28 21:30:00 UTC,2444784.395833,28.7317,-95.2428,0060,29.6000
1981-06-28 22:00:00 UTC,2444784.416667,28.7317,-95.2428,0060,29.7000
1981-06-28 22:30:00 UTC,2444784.437500,28.7317,-95.2428,0060,29.7000
1981-06-28 23:00:00 UTC,2444784.458333,28.7317,-95.2428,0060,29.7000
1981-06-28 23:30:00 UTC,2444784.479167,28.7317,-95.2428,0060,29.7000
1981-06-29 00:00:00 UTC,2444784.500000,28.7317,-95.2428,0060,29.7000
1981-06-29 00:30:00 UTC,2444784.520833,28.7317,-95.2428,0060,29.7000
1981-06-29 01:00:00 UTC,2444784.541667,28.7317,-95.2428,0060,29.7000
1981-06-29 01:30:00 UTC,2444784.562500,28.7317,-95.2428,0060,29.7000
1981-06-29 02:00:00 UTC,2444784.583333,28.7317,-95.2428,0060,29.7000
1981-06-29 02:30:00 UTC,2444784.604167,28.7317,-95.2428,0060,29.7000
1981-06-29 03:00:00 UTC,2444784.625000,28.7317,-95.2428,0060,29.7000
1981-06-29 03:30:00 UTC,2444784.645833,28.7317,-95.2428,0060,29.6000
1981-06-29 04:00:00 UTC,2444784.666667,28.7317,-95.2428,0060,29.6000
1981-06-29 04:30:00 UTC,2444784.687500,28.7317,-95.2428,0060,29.5000
1981-06-29 05:00:00 UTC,2444784.708333,28.7317,-95.2428,0060,29.5000
1981-06-29 05:30:00 UTC,2444784.729167,28.7317,-95.2428,0060,29.5000
1981-06-29 06:00:00 UTC,2444784.750000,28.7317,-95.2428,0060,29.5000
1981-06-29 06:30:00 UTC,2444784.770833,28.7317,-95.2428,0060,29.5000
1981-06-29 07:00:00 UTC,2444784.791667,28.7317,-95.2428,0060,29.6000
1981-06-29 07:30:00 UTC,2444784.812500,28.7317,-95.2428,0060,29.6000
1981-06-29 08:00:00 UTC,2444784.833333,28.7317,-95.2428,0060,29.7000
1981-06-29 08:30:00 UTC,2444784.854167,28.7317,-95.2428,0060,29.7000
1981-06-29 09:00:00 UTC,2444784.875000,28.7317,-95.2428,0060,29.6000
1981-06-29 09:30:00 UTC,2444784.895833,28.7317,-95.2428,0060,29.6000
1981-06-29 10:00:00 UTC,2444784.916667,28.7317,-95.2428,0060,29.6000
1981-06-29 10:30:00 UTC,2444784.937500,28.7317,-95.2428,0060,29.5000
1981-06-29 11:00:00 UTC,2444784.958333,28.7317,-95.2428,0060,29.4000
1981-06-29 11:30:00 UTC,2444784.979167,28.7317,-95.2428,0060,29.4000
1981-06-29 12:00:00 UTC,2444785.000000,28.7317,-95.2428,0060,29.4000
1981-06-29 12:30:00 UTC,2444785.020833,28.7317,-95.2428,0060,29.4000
1981-06-29 13:00:00 UTC,2444785.041667,28.7317,-95.2428,0060,29.4000
1981-06-29 13:30:00 UTC,2444785.062500,28.7317,-95.2428,0060,29.4000
1981-06-29 14:00:00 UTC,2444785.083333,28.7317,-95.2428,0060,29.4000
1981-06-29 14:30:00 UTC,2444785.104167,28.7317,-95.2428,0060,29.3000
1981-06-29 15:00:00 UTC,2444785.125000,28.7317,-95.2428,0060,29.3000
1981-06-29 15:30:00 UTC,2444785.145833,28.7317,-95.2428,0060,29.3000
1981-06-29 16:00:00 UTC,2444785.166667,28.7317,-95.2428,0060,29.4000
1981-06-29 16:30:00 UTC,2444785.187500,28.7317,-95.2428,0060,29.4000
1981-06-29 17:00:00 UTC,2444785.208333,28.7317,-95.2428,0060,29.4000
1981-06-29 17:30:00 UTC,2444785.229167,28.7317,-95.2428,0060,29.4000
1981-06-29 18:00:00 UTC,2444785.250000,28.7317,-95.2428,0060,29.4000
1981-06-29 18:30:00 UTC,2444785.270833,28.7317,-95.2428,0060,29.4000
1981-06-29 19:00:00 UTC,2444785.291667,28.7317,-95.2428,0060,29.4000
1981-06-29 19:30:00 UTC,2444785.312500,28.7317,-95.2428,0060,29.4000
1981-06-29 20:00:00 UTC,2444785.333333,28.7317,-95.2428,0060,29.5000
1981-06-29 20:30:00 UTC,2444785.354167,28.7317,-95.2428,0060,29.4000
1981-06-29 21:00:00 UTC,2444785.375000,28.7317,-95.2428,0060,29.3000
1981-06-29 21:30:00 UTC,2444785.395833,28.7317,-95.2428,0060,29.2000
1981-06-29 22:00:00 UTC,2444785.416667,28.7317,-95.2428,0060,29.3000
1981-06-29 22:30:00 UTC,2444785.437500,28.7317,-95.2428,0060,29.3000
1981-06-29 23:00:00 UTC,2444785.458333,28.7317,-95.2428,0060,29.4000
1981-06-29 23:30:00 UTC,2444785.479167,28.7317,-95.2428,0060,29.4000
1981-06-30 00:00:00 UTC,2444785.500000,28.7317,-95.2428,0060,29.3000
1981-06-30 00:30:00 UTC,2444785.520833,28.7317,-95.2428,0060,29.3000
1981-06-30 01:00:00 UTC,2444785.541667,28.7317,-95.2428,0060,29.3000
1981-06-30 01:30:00 UTC,2444785.562500,28.7317,-95.2428,0060,29.3000
1981-06-30 02:00:00 UTC,2444785.583333,28.7317,-95.2428,0060,29.3000
1981-06-30 02:30:00 UTC,2444785.604167,28.7317,-95.2428,0060,29.3000
1981-06-30 03:00:00 UTC,2444785.625000,28.7317,-95.2428,0060,29.4000
1981-06-30 03:30:00 UTC,2444785.645833,28.7317,-95.2428,0060,29.4000
1981-06-30 04:00:00 UTC,2444785.666667,28.7317,-95.2428,0060,29.5000
1981-06-30 04:30:00 UTC,2444785.687500,28.7317,-95.2428,0060,29.4000
1981-06-30 05:00:00 UTC,2444785.708333,28.7317,-95.2428,0060,29.4000
1981-06-30 05:30:00 UTC,2444785.729167,28.7317,-95.2428,0060,29.3000
1981-06-30 06:00:00 UTC,2444785.750000,28.7317,-95.2428,0060,29.3000
1981-06-30 06:30:00 UTC,2444785.770833,28.7317,-95.2428,0060,29.2000
1981-06-30 07:00:00 UTC,2444785.791667,28.7317,-95.2428,0060,29.2000
1981-06-30 07:30:00 UTC,2444785.812500,28.7317,-95.2428,0060,29.1000
1981-06-30 08:00:00 UTC,2444785.833333,28.7317,-95.2428,0060,29.1000
1981-06-30 08:30:00 UTC,2444785.854167,28.7317,-95.2428,0060,29.2000
1981-06-30 09:00:00 UTC,2444785.875000,28.7317,-95.2428,0060,29.3000
1981-06-30 09:30:00 UTC,2444785.895833,28.7317,-95.2428,0060,29.3000
1981-06-30 10:00:00 UTC,2444785.916667,28.7317,-95.2428,0060,29.2000
1981-06-30 10:30:00 UTC,2444785.937500,28.7317,-95.2428,0060,29.1000
1981-06-30 11:00:00 UTC,2444785.958333,28.7317,-95.2428,0060,29.0000
1981-06-30 11:30:00 UTC,2444785.979167,28.7317,-95.2428,0060,29.0000
1981-06-30 12:00:00 UTC,2444786.000000,28.7317,-95.2428,0060,29.0000
1981-06-30 12:30:00 UTC,2444786.020833,28.7317,-95.2428,0060,29.0000
1981-06-30 13:00:00 UTC,2444786.041667,28.7317,-95.2428,0060,28.9000
1981-06-30 13:30:00 UTC,2444786.062500,28.7317,-95.2428,0060,29.0000
1981-06-30 14:00:00 UTC,2444786.083333,28.7317,-95.2428,0060,29.2000
1981-06-30 14:30:00 UTC,2444786.104167,28.7317,-95.2428,0060,29.5000
1981-06-30 15:00:00 UTC,2444786.125000,28.7317,-95.2428,0060,29.7000
1981-06-30 15:30:00 UTC,2444786.145833,28.7317,-95.2428,0060,29.7000
1981-06-30 16:00:00 UTC,2444786.166667,28.7317,-95.2428,0060,29.8000
1981-06-30 16:30:00 UTC,2444786.187500,28.7317,-95.2428,0060,29.7000
1981-06-30 17:00:00 UTC,2444786.208333,28.7317,-95.2428,0060,29.6000
